Location: Newark
(49.3808°N, 3.1844°E)
Time: 00:00:35
(UTC+00:00)

Vanguard 1 Rocket - Pass Details

Date: 16 November 2019
Orbit: 650 x 4226 km, 34.3° (Epoch: 14 December)

Event Time Altitude Azimuth Distance (km) Brightness Sun altitude
Rises 05:20:25 0° 233° (SW) 3,009 - -15.9°
Exits shadow 05:21:57 - 223° (SW) 2,536 9.4 -15.7°
Reaches altitude 10° 05:23:09 10° 212° (SSW) 2,240 9.2 -15.5°
Maximum altitude 05:26:35 18° 168° (SSE) 2,003 9.4 -14.9°
Drops below altitude 10° 05:31:00 10° 127° (SE) 3,014 11.1 -14.2°
Sets 05:35:33 0° 111° (ESE) 4,564 12.9 -13.5°
